Location: Martinez
(33.5170°N, 82.0760°W)
Time: 13:24:30
(UTC-04:00)

HST - Visible Passes

Search period start: 24 April 2014 00:00
Search period end: 04 May 2014 00:00
Orbit: 548 x 553 km, 28.5° (Epoch: 23 April)

Date Brightness Start Highest point End Pass type
(mag) Time Alt. Az. Time Alt. Az. Time Alt. Az.
24 Apr 2.0 20:33:49 10° WSW 20:37:32 31° SSW 20:41:15 10° SE visible
24 Apr 3.4 22:16:27 10° SW 22:17:05 12° SW 22:17:05 12° SW visible
25 Apr 2.2 20:27:24 10° WSW 20:30:57 27° SSW 20:34:30 10° SE visible
